User: anonymous   Login
Location: Libas
(9.8833°N, 125.9833°E)
Time: 00:25:31
(UTC+00:00)
Language:

Cosmos 407 Rocket - Orbit

View from above orbital plane
View from above orbital plane
View from above satellite
View from above satellite

Ground track
Ground track

The orbit data is extracted from the following two-line orbital elements,

1 05175U 71035B   21021.55501425  .00000009  00000-0  11726-4 0  9997
2 05175  74.0500 310.4842 0030424 195.9152 164.1049 14.38006854603613
Epoch (UTC): 21 January 2021 13:19:13
Eccentricity: 0.0030424
inclination: 74.0500°
perigee height: 743 km
apogee height: 787 km
right ascension of ascending node: 310.4842°
argument of perigee: 195.9152°
revolutions per day: 14.38006854
mean anomaly at epoch: 164.1049°
orbit number at epoch: 60361

The dashed part of the orbit path shows where the satellite is in the earth's shadow,  

DLR